Time,TemperatureF,DewpointF,PressureIn,WindDirection,WindDirectionDegrees,WindSpeedMPH,WindSpeedGustMPH,Humidity,HourlyPrecipIn,Conditions,Clouds,dailyrainin,SolarRadiationWatts/m^2,SoftwareType,DateUTC
2013-07-01 00:01:00,61.0,61.0,-100.00,SW,216,0.0,10.0,99,0.00,,,0.00,0.000000,,2013-07-01 04:01:00,
2013-07-01 00:11:00,61.0,61.0,-100.00,SW,216,0.0,10.0,99,0.00,,,0.00,0.000000,,2013-07-01 04:11:00,
2013-07-01 00:22:00,61.0,61.0,-100.00,SW,216,0.0,10.0,99,0.00,,,0.00,0.000000,,2013-07-01 04:22:00,
2013-07-01 00:32:00,61.0,61.0,-100.00,SW,216,0.0,10.0,99,0.00,,,0.00,0.000000,,2013-07-01 04:32:00,
2013-07-01 01:02:00,63.0,63.0,-100.00,SW,219,1.0,9.0,99,0.00,,,0.00,0.000000,,2013-07-01 05:02:00,
2013-07-01 01:11:00,63.0,63.0,-100.00,SW,219,1.0,9.0,99,0.00,,,0.00,0.000000,,2013-07-01 05:11:00,
2013-07-01 01:22:00,63.0,63.0,-100.00,SW,219,1.0,9.0,99,0.00,,,0.00,0.000000,,2013-07-01 05:22:00,
2013-07-01 01:33:00,63.0,63.0,-100.00,SW,219,1.0,9.0,99,0.00,,,0.00,0.000000,,2013-07-01 05:33:00,
2013-07-01 02:02:00,63.0,63.0,-100.00,SW,214,0.0,11.0,99,0.00,,,0.00,0.000000,,2013-07-01 06:02:00,
2013-07-01 02:12:00,63.0,63.0,-100.00,SW,214,0.0,11.0,99,0.00,,,0.00,0.000000,,2013-07-01 06:12:00,
2013-07-01 02:24:00,63.0,63.0,-100.00,SW,214,0.0,11.0,99,0.00,,,0.00,0.000000,,2013-07-01 06:24:00,
2013-07-01 02:33:00,63.0,63.0,-100.00,SW,214,0.0,11.0,99,0.00,,,0.00,0.000000,,2013-07-01 06:33:00,
2013-07-01 03:02:00,62.0,62.0,-100.00,SW,223,3.0,11.0,99,0.00,,,0.00,0.000000,,2013-07-01 07:02:00,
2013-07-01 03:12:00,62.0,62.0,-100.00,SW,223,3.0,11.0,99,0.00,,,0.00,0.000000,,2013-07-01 07:12:00,
2013-07-01 03:22:00,62.0,62.0,-100.00,SW,223,3.0,11.0,99,0.00,,,0.00,0.000000,,2013-07-01 07:22:00,
2013-07-01 03:33:00,62.0,62.0,-100.00,SW,223,3.0,11.0,99,0.00,,,0.00,0.000000,,2013-07-01 07:33:00,
2013-07-01 04:01:00,62.0,62.0,-100.00,SW,219,0.0,10.0,99,0.00,,,0.00,0.000000,,2013-07-01 08:01:00,
2013-07-01 04:12:00,62.0,62.0,-100.00,SW,219,0.0,10.0,99,0.00,,,0.00,0.000000,,2013-07-01 08:12:00,
2013-07-01 04:22:00,62.0,62.0,-100.00,SW,219,0.0,10.0,99,0.00,,,0.00,0.000000,,2013-07-01 08:22:00,
2013-07-01 04:33:00,62.0,62.0,-100.00,SW,219,0.0,10.0,99,0.00,,,0.00,0.000000,,2013-07-01 08:33:00,
2013-07-01 05:02:00,62.0,62.0,-100.00,SW,217,0.0,9.0,99,0.01,,,0.01,0.000000,,2013-07-01 09:02:00,
2013-07-01 05:12:00,62.0,62.0,-100.00,SW,217,0.0,9.0,99,0.01,,,0.01,0.000000,,2013-07-01 09:12:00,
2013-07-01 05:22:00,62.0,62.0,-100.00,SW,217,0.0,9.0,99,0.01,,,0.01,0.000000,,2013-07-01 09:22:00,
2013-07-01 05:34:00,62.0,62.0,-100.00,SW,217,0.0,9.0,99,0.01,,,0.01,0.000000,,2013-07-01 09:34:00,
2013-07-01 06:03:00,63.0,63.0,-100.00,SW,225,0.0,0.0,99,0.00,,,0.01,4.000000,,2013-07-01 10:03:00,
2013-07-01 06:12:00,63.0,63.0,-100.00,SW,225,0.0,0.0,99,0.00,,,0.01,4.000000,,2013-07-01 10:12:00,
2013-07-01 06:22:00,63.0,63.0,-100.00,SW,225,0.0,0.0,99,0.00,,,0.01,4.000000,,2013-07-01 10:22:00,
2013-07-01 06:33:00,63.0,63.0,-100.00,SW,225,0.0,0.0,99,0.00,,,0.01,4.000000,,2013-07-01 10:33:00,
2013-07-01 07:02:00,63.0,63.0,-100.00,SW,218,1.0,11.0,99,0.00,,,0.01,29.000000,,2013-07-01 11:02:00,
2013-07-01 07:12:00,63.0,63.0,-100.00,SW,218,1.0,11.0,99,0.00,,,0.01,29.000000,,2013-07-01 11:12:00,
2013-07-01 07:22:00,63.0,63.0,-100.00,SW,218,1.0,11.0,99,0.00,,,0.01,29.000000,,2013-07-01 11:22:00,
2013-07-01 07:33:00,63.0,63.0,-100.00,SW,218,1.0,11.0,99,0.00,,,0.01,29.000000,,2013-07-01 11:33:00,
2013-07-01 08:01:00,63.0,63.0,-100.00,SW,218,0.0,10.0,99,0.00,,,0.01,108.000000,,2013-07-01 12:01:00,
2013-07-01 08:11:00,63.0,63.0,-100.00,SW,218,0.0,10.0,99,0.00,,,0.01,108.000000,,2013-07-01 12:11:00,
2013-07-01 08:22:00,63.0,63.0,-100.00,SW,218,0.0,10.0,99,0.00,,,0.01,108.000000,,2013-07-01 12:22:00,
2013-07-01 08:33:00,63.0,63.0,-100.00,SW,218,0.0,10.0,99,0.00,,,0.01,108.000000,,2013-07-01 12:33:00,
2013-07-01 09:02:00,64.0,63.0,-100.00,SW,229,0.0,11.0,98,0.00,,,0.01,217.000000,,2013-07-01 13:02:00,
2013-07-01 09:12:00,64.0,63.0,-100.00,SW,229,0.0,11.0,98,0.00,,,0.01,217.000000,,2013-07-01 13:12:00,
2013-07-01 09:23:00,64.0,63.0,-100.00,SW,229,0.0,11.0,98,0.00,,,0.01,217.000000,,2013-07-01 13:23:00,
2013-07-01 09:33:00,64.0,63.0,-100.00,SW,229,0.0,11.0,98,0.00,,,0.01,217.000000,,2013-07-01 13:33:00,
2013-07-01 10:22:00,66.0,65.0,-100.00,SW,224,0.0,3.0,97,0.00,,,0.01,293.000000,,2013-07-01 14:22:00,
2013-07-01 10:34:00,66.0,65.0,-100.00,SW,224,0.0,3.0,97,0.00,,,0.01,293.000000,,2013-07-01 14:34:00,
2013-07-01 11:02:00,67.0,66.0,-100.00,SW,214,0.0,0.0,95,0.00,,,0.01,287.000000,,2013-07-01 15:02:00,
2013-07-01 11:12:00,67.0,66.0,-100.00,SW,214,0.0,0.0,95,0.00,,,0.01,287.000000,,2013-07-01 15:12:00,
2013-07-01 11:23:00,67.0,66.0,-100.00,SW,214,0.0,0.0,95,0.00,,,0.01,287.000000,,2013-07-01 15:23:00,
2013-07-01 11:34:00,67.0,66.0,-100.00,SW,214,0.0,0.0,95,0.00,,,0.01,287.000000,,2013-07-01 15:34:00,
2013-07-01 12:01:00,67.0,65.0,-100.00,SW,216,0.0,0.0,93,0.00,,,0.01,307.000000,,2013-07-01 16:01:00,
2013-07-01 12:11:00,67.0,65.0,-100.00,SW,216,0.0,0.0,93,0.00,,,0.01,307.000000,,2013-07-01 16:11:00,
2013-07-01 12:22:00,67.0,65.0,-100.00,SW,216,0.0,0.0,93,0.00,,,0.01,307.000000,,2013-07-01 16:22:00,
2013-07-01 12:33:00,67.0,65.0,-100.00,SW,216,0.0,0.0,93,0.00,,,0.01,307.000000,,2013-07-01 16:33:00,
2013-07-01 13:02:00,67.0,64.0,-100.00,SW,221,1.0,10.0,91,0.00,,,0.01,357.000000,,2013-07-01 17:02:00,
2013-07-01 13:12:00,67.0,64.0,-100.00,SW,221,1.0,10.0,91,0.00,,,0.01,357.000000,,2013-07-01 17:12:00,
2013-07-01 13:23:00,67.0,64.0,-100.00,SW,221,1.0,10.0,91,0.00,,,0.01,357.000000,,2013-07-01 17:23:00,
2013-07-01 13:34:00,67.0,64.0,-100.00,SW,221,1.0,10.0,91,0.00,,,0.01,357.000000,,2013-07-01 17:34:00,
2013-07-01 14:02:00,70.0,67.0,-100.00,SW,230,0.0,8.0,90,0.00,,,0.01,415.000000,,2013-07-01 18:02:00,
2013-07-01 14:11:00,70.0,67.0,-100.00,SW,230,0.0,8.0,90,0.00,,,0.01,415.000000,,2013-07-01 18:11:00,
2013-07-01 14:22:00,70.0,67.0,-100.00,SW,230,0.0,8.0,90,0.00,,,0.01,415.000000,,2013-07-01 18:22:00,
2013-07-01 14:33:00,70.0,67.0,-100.00,SW,230,0.0,8.0,90,0.00,,,0.01,415.000000,,2013-07-01 18:33:00,
2013-07-01 15:02:00,70.0,67.0,-100.00,SW,218,2.0,10.0,89,0.00,,,0.01,557.000000,,2013-07-01 19:02:00,
2013-07-01 15:11:00,70.0,67.0,-100.00,SW,218,2.0,10.0,89,0.00,,,0.01,557.000000,,2013-07-01 19:11:00,
2013-07-01 15:22:00,70.0,67.0,-100.00,SW,218,2.0,10.0,89,0.00,,,0.01,557.000000,,2013-07-01 19:22:00,
2013-07-01 15:34:00,70.0,67.0,-100.00,SW,218,2.0,10.0,89,0.00,,,0.01,557.000000,,2013-07-01 19:34:00,
2013-07-01 16:02:00,68.0,66.0,-100.00,SSW,212,0.0,7.0,93,0.00,,,0.01,293.000000,,2013-07-01 20:02:00,
2013-07-01 16:11:00,68.0,66.0,-100.00,SSW,212,0.0,7.0,93,0.00,,,0.01,293.000000,,2013-07-01 20:11:00,
2013-07-01 16:22:00,68.0,66.0,-100.00,SSW,212,0.0,7.0,93,0.00,,,0.01,293.000000,,2013-07-01 20:22:00,
2013-07-01 16:34:00,68.0,66.0,-100.00,SSW,212,0.0,7.0,93,0.00,,,0.01,293.000000,,2013-07-01 20:34:00,
2013-07-01 17:02:00,67.0,66.0,-100.00,SSW,211,0.0,3.0,95,0.00,,,0.01,144.000000,,2013-07-01 21:02:00,
2013-07-01 17:11:00,67.0,66.0,-100.00,SSW,211,0.0,3.0,95,0.00,,,0.01,144.000000,,2013-07-01 21:11:00,
2013-07-01 17:24:00,67.0,66.0,-100.00,SSW,211,0.0,3.0,95,0.00,,,0.01,144.000000,,2013-07-01 21:24:00,
2013-07-01 17:34:00,67.0,66.0,-100.00,SSW,211,0.0,3.0,95,0.00,,,0.01,144.000000,,2013-07-01 21:34:00,
2013-07-01 18:01:00,67.0,66.0,-100.00,SW,214,0.0,0.0,98,0.03,,,0.04,100.000000,,2013-07-01 22:01:00,
2013-07-01 18:12:00,67.0,66.0,-100.00,SW,214,0.0,0.0,98,0.03,,,0.04,100.000000,,2013-07-01 22:12:00,
2013-07-01 18:33:00,67.0,66.0,-100.00,SW,214,0.0,0.0,98,0.03,,,0.04,100.000000,,2013-07-01 22:33:00,
2013-07-01 19:01:00,67.0,66.0,-100.00,SW,222,0.0,0.0,98,0.00,,,0.04,73.000000,,2013-07-01 23:01:00,
2013-07-01 19:11:00,67.0,66.0,-100.00,SW,222,0.0,0.0,98,0.00,,,0.04,73.000000,,2013-07-01 23:11:00,
2013-07-01 19:22:00,67.0,66.0,-100.00,SW,222,0.0,0.0,98,0.00,,,0.04,73.000000,,2013-07-01 23:22:00,
2013-07-01 19:33:00,67.0,66.0,-100.00,SW,222,0.0,0.0,98,0.00,,,0.04,73.000000,,2013-07-01 23:33:00,
2013-07-01 20:01:00,66.0,65.0,-100.00,NW,310,0.0,0.0,98,0.01,,,0.05,38.000000,,2013-07-02 00:01:00,
2013-07-01 20:12:00,66.0,65.0,-100.00,NW,310,0.0,0.0,98,0.01,,,0.05,38.000000,,2013-07-02 00:12:00,
2013-07-01 20:22:00,66.0,65.0,-100.00,NW,310,0.0,0.0,98,0.01,,,0.05,38.000000,,2013-07-02 00:22:00,
2013-07-01 20:34:00,66.0,65.0,-100.00,NW,310,0.0,0.0,98,0.01,,,0.05,38.000000,,2013-07-02 00:34:00,
2013-07-01 21:01:00,62.0,61.0,-100.00,NNE,27,0.0,0.0,97,0.01,,,0.06,6.000000,,2013-07-02 01:01:00,
2013-07-01 21:11:00,62.0,61.0,-100.00,NNE,27,0.0,0.0,97,0.01,,,0.06,6.000000,,2013-07-02 01:11:00,
2013-07-01 21:22:00,62.0,61.0,-100.00,NNE,27,0.0,0.0,97,0.01,,,0.06,6.000000,,2013-07-02 01:22:00,
2013-07-01 21:33:00,62.0,61.0,-100.00,NNE,27,0.0,0.0,97,0.01,,,0.06,6.000000,,2013-07-02 01:33:00,
2013-07-01 22:02:00,61.0,60.0,-100.00,North,349,0.0,0.0,98,0.02,,,0.08,0.000000,,2013-07-02 02:02:00,
2013-07-01 22:12:00,61.0,60.0,-100.00,North,349,0.0,0.0,98,0.02,,,0.08,0.000000,,2013-07-02 02:12:00,
2013-07-01 22:22:00,61.0,60.0,-100.00,North,349,0.0,0.0,98,0.02,,,0.08,0.000000,,2013-07-02 02:22:00,
2013-07-01 22:34:00,61.0,60.0,-100.00,North,349,0.0,0.0,98,0.02,,,0.08,0.000000,,2013-07-02 02:34:00,
2013-07-01 23:02:00,60.0,59.0,-100.00,NNE,12,0.0,0.0,98,0.01,,,0.09,0.000000,,2013-07-02 03:02:00,
2013-07-01 23:12:00,60.0,59.0,-100.00,NNE,12,0.0,0.0,98,0.01,,,0.09,0.000000,,2013-07-02 03:12:00,
2013-07-01 23:24:00,60.0,59.0,-100.00,NNE,12,0.0,0.0,98,0.01,,,0.09,0.000000,,2013-07-02 03:24:00,
2013-07-01 23:32:00,60.0,59.0,-100.00,NNE,12,0.0,0.0,98,0.01,,,0.09,0.000000,,2013-07-02 03:32:00,